MINOTAUR 4 DEB, 52037

Orbit data source: Space-Track

MINOTAUR 4 DEB, 52037 is space debris in LEO originally from a launch on Wed, 15 Jul 2020 UTC launched from the Wallops Island (WLPIS). Debris objects in space refer to the collection of defunct objects orbiting the Earth. Examples of debris include non-operational satellites, rocket bodies, and fragments generated from explosions, collisions, or faulty payload assembly.

Loading next visibility...
Identifier
52037, 2020-046AB
Orbit
LEO
Country
Flag of USUS
Related business
Manufacturer
NGIS FSG
Mission
Spacecraft
Bus & Motor
Unknown
Mass
Unknown
Launch date (UTC)
2020-07-15 (5 years ago)
Launch vehicle
Unknown
Launch site
Wallops Island (WLPIS)
Object type
Payload
Rocket body
Debris
Shape & HBR
Unknown
Radar Cross Section
Small (<0.1 m²)

Expand to show TLE details & history
Last TLE update: 12 hours ago

TLE from 12 hours ago
0 MINOTAUR 4 DEB
1 52037U 20046AB  25259.57323540  .00001202  00000-0  10742-3 0  9993
2 52037  53.9817 359.2909 0007467 336.5582  23.5076 15.03381627200703
Epoch: 2025-09-16T13:45Z
TLE epoch observation values (Epoch: 2025-09-16T13:45:27.538Z)
Latitude
-0.00004°
Longitude
157.16453°
Altitude
552.706 km
Speed
7.589 km/s
True Right ascension
23h 57m 09s
True Declination
0° 00' 00"
Sunlit
Object was in full shadow at epoch
Visualization orbit readout
Latitude
Unknown
Longitude
Unknown
Altitude
Unknown
Speed
Unknown
Apparent Right ascension
Unknown
Apparent Declination
Unknown
Sunlit
N/A
Visualization observer readout
Local Sidereal Time
18:55:11
Azimuth
Unknown
Elevation
Unknown
Doppler factor
Unknown
Orbital elements
Apogee altitude
561.779 km
Perigee altitude
551.423 km
Semi-major axis
6,934.738 km
Eccentricity
0.00075
Inclination
53.9817°
RAAN
359.2909°
Arg. of periapsis
336.5582°
True anomaly
23.54176°
Mean anomaly
23.5076°
Eccentric anomaly
23.52468°
Mean motion
3.75836 °/min
Orbital period
95.79 mins
BSTAR
0.00010742
Loading maneuver chart data...
Computing Atmospheric mass density...
Loading historical data...
Loading historical data...
Loading historical data...
Loading historical data...
Loading historical data...
Loading historical data...
Loading historical data...

Documentation

Showing up to 5 results
|